QPF
0.01 0.01 0.02 0.05 0.05 0.04 0.04 0.03 0.03 0.04 0.02 0.01 0.02 0.03 0.03 0.03 0.02 0.01 0.01 0.01 0.01 0.02 0.04 0.04 0.05 0.04 0.04 0.05 0.06 0.06 0.05 0.03 0.03 0.03 0.03 0.02 0.01 0.01 0.02 0.03 0.02 0.02 0.02
0.02 0.01 0.02 0.05 0.06 0.06 0.06 0.04 0.03 0.03 0.02 0.02 0.02 0.03 0.03 0.03 0.03 0.02 0.01 0.01 0.02 0.02 0.04 0.06 0.07 0.07 0.07 0.07 0.07 0.08 0.07 0.04 0.03 0.03 0.03 0.03 0.02 0.02 0.02 0.02 0.02 0.01 0.01
0.02 0.02 0.03 0.04 0.04 0.05 0.06 0.05 0.04 0.03 0.02 0.02 0.02 0.03 0.03 0.04 0.04 0.04 0.02 0.01 0.01 0.02 0.03 0.05 0.08 0.09 0.08 0.10 0.09 0.09 0.07 0.05 0.03 0.03 0.03 0.03 0.03 0.02 0.02 0.02 0.02 0.02 0.01
0.02 0.03 0.04 0.05 0.04 0.04 0.05 0.06 0.05 0.04 0.03 0.03 0.03 0.04 0.02 0.03 0.05 0.06 0.04 0.02 0.01 0.01 0.02 0.03 0.05 0.08 0.08 0.09 0.08 0.08 0.07 0.05 0.03 0.03 0.03 0.03 0.03 0.03 0.02 0.02 0.02 0.02 0.02
0.02 0.03 0.05 0.06 0.05 0.05 0.05 0.06 0.06 0.04 0.03 0.03 0.03 0.03 0.03 0.02 0.03 0.05 0.05 0.02 0.01 0.01 0.02 0.02 0.02 0.03 0.08 0.10 0.07 0.07 0.07 0.06 0.05 0.04 0.03 0.03 0.03 0.03 0.03 0.03 0.03 0.02 0.02
0.02 0.03 0.05 0.07 0.06 0.05 0.06 0.06 0.06 0.05 0.04 0.03 0.03 0.03 0.03 0.02 0.03 0.05 0.05 0.04 0.02 0.01 0.02 0.02 0.01 0.01 0.03 0.08 0.08 0.07 0.07 0.06 0.05 0.05 0.04 0.04 0.03 0.04 0.03 0.04 0.04 0.03 0.03
0.04 0.04 0.04 0.07 0.08 0.07 0.06 0.06 0.06 0.06 0.05 0.04 0.04 0.03 0.03 0.03 0.03 0.04 0.05 0.05 0.04 0.02 0.02 0.02 0.01 0.01 0.02 0.04 0.07 0.08 0.08 0.07 0.06 0.06 0.05 0.06 0.05 0.04 0.05 0.05 0.05 0.05 0.05
0.05 0.05 0.05 0.04 0.07 0.07 0.06 0.05 0.06 0.06 0.05 0.05 0.04 0.03 0.03 0.03 0.03 0.04 0.05 0.05 0.05 0.03 0.02 0.02 0.01 0.01 0.02 0.03 0.05 0.06 0.09 0.09 0.09 0.08 0.07 0.07 0.09 0.09 0.08 0.06 0.06 0.05 0.05
0.05 0.06 0.06 0.05 0.05 0.06 0.05 0.04 0.05 0.05 0.05 0.06 0.06 0.04 0.03 0.03 0.02 0.03 0.04 0.04 0.04 0.03 0.02 0.02 0.01 0.01 0.02 0.04 0.05 0.04 0.06 0.08 0.10 0.08 0.07 0.06 0.06 0.07 0.08 0.07 0.05 0.05 0.05
0.04 0.06 0.07 0.07 0.06 0.06 0.05 0.04 0.04 0.04 0.03 0.05 0.08 0.09 0.07 0.05 0.03 0.03 0.03 0.04 0.04 0.03 0.02 0.02 0.02 0.01 0.02 0.03 0.06 0.05 0.04 0.05 0.07 0.08 0.07 0.06 0.05 0.05 0.06 0.07 0.07 0.06 0.05
0.04 0.04 0.07 0.07 0.06 0.07 0.07 0.05 0.04 0.04 0.03 0.02 0.04 0.08 0.11 0.09 0.06 0.04 0.03 0.03 0.04 0.04 0.03 0.02 0.02 0.02 0.02 0.03 0.05 0.06 0.04 0.04 0.05 0.07 0.07 0.07 0.07 0.06 0.07 0.07 0.08 0.08 0.07
0.04 0.05 0.06 0.06 0.06 0.06 0.07 0.07 0.05 0.05 0.04 0.02 0.02 0.02 0.05 0.07 0.08 0.06 0.04 0.04 0.04 0.04 0.04 0.04 0.03 0.03 0.03 0.03 0.03 0.05 0.05 0.04 0.04 0.05 0.06 0.06 0.07 0.07 0.07 0.09 0.10 0.09 0.08
0.05 0.05 0.04 0.05 0.06 0.06 0.05 0.07 0.07 0.05 0.04 0.03 0.02 0.01 0.01 0.02 0.03 0.04 0.05 0.04 0.04 0.04 0.04 0.04 0.04 0.04 0.03 0.03 0.03 0.03 0.04 0.04 0.04 0.04 0.04 0.05 0.06 0.08 0.08 0.07 0.10 0.13 0.12
0.03 0.05 0.05 0.05 0.06 0.06 0.06 0.05 0.06 0.05 0.04 0.03 0.02 0.01 0.01 0.01 0.01 0.03 0.03 0.04 0.04 0.03 0.04 0.04 0.04 0.04 0.04 0.03 0.03 0.03 0.02 0.03 0.03 0.03 0.04 0.05 0.05 0.07 0.09 0.09 0.08 0.09 0.11
0.02 0.04 0.05 0.06 0.05 0.06 0.07 0.06 0.05 0.04 0.04 0.02 0.01 0.01 0.01 0.01 0.01 0.01 0.02 0.03 0.04 0.04 0.04 0.04 0.04 0.03 0.03 0.04 0.04 0.03 0.02 0.03 0.03 0.03 0.03 0.04 0.04 0.05 0.06 0.07 0.08 0.08 0.07
0.01 0.03 0.05 0.06 0.06 0.05 0.06 0.07 0.06 0.05 0.03 0.03 0.02 0.01 0.01 0.01 0.01 0.02 0.02 0.02 0.03 0.04 0.04 0.04 0.03 0.02 0.02 0.02 0.03 0.02 0.02 0.03 0.02 0.02 0.02 0.03 0.04 0.04 0.05 0.04 0.05 0.06 0.07
0.01 0.02 0.03 0.05 0.05 0.05 0.05 0.06 0.06 0.05 0.04 0.03 0.02 0.01 0.01 0.01 0.01 0.02 0.02 0.02 0.02 0.03 0.03 0.03 0.03 0.02 0.02 0.02 0.02 0.02 0.02 0.02 0.02 0.02 0.02 0.02 0.03 0.03 0.04 0.04 0.04 0.04 0.06
0.01 0.02 0.02 0.03 0.04 0.04 0.04 0.04 0.04 0.04 0.04 0.03 0.02 0.02 0.01 0.01 0.01 0.02 0.03 0.02 0.02 0.02 0.02 0.02 0.03 0.03 0.02 0.01 0.02 0.02 0.02 0.02 0.02 0.02 0.02 0.02 0.02 0.03 0.03 0.03 0.03 0.03 0.03
0.01 0.01 0.02 0.02 0.03 0.03 0.03 0.03 0.03 0.03 0.02 0.03 0.02 0.02 0.02 0.02 0.01 0.02 0.03 0.03 0.02 0.01 0.01 0.02 0.02 0.03 0.03 0.02 0.02 0.02 0.02 0.02 0.02 0.03 0.02 0.02 0.02 0.02 0.03 0.03 0.03 0.03 0.02
0.01 0.01 0.01 0.02 0.02 0.03 0.02 0.02 0.02 0.02 0.02 0.01 0.02 0.02 0.02 0.02 0.01 0.01 0.03 0.02 0.02 0.01 0.02 0.02 0.02 0.03 0.03 0.03 0.03 0.03 0.03 0.03 0.03 0.03 0.02 0.02 0.02 0.02 0.02 0.02 0.02 0.02 0.02
0.01 0.01 0.01 0.01 0.02 0.02 0.02 0.02 0.02 0.03 0.02 0.01 0.01 0.02 0.02 0.02 0.02 0.02 0.02 0.02 0.02 0.02 0.02 0.02 0.03 0.03 0.04 0.04 0.04 0.03 0.04 0.04 0.04 0.04 0.03 0.02 0.02 0.02 0.02 0.02 0.02 0.01 0.01
0.01 0.01 0.01 0.02 0.02 0.02 0.02 0.02 0.02 0.02 0.02 0.02 0.01 0.01 0.02 0.02 0.02 0.02 0.02 0.02 0.03 0.03 0.03 0.03 0.02 0.03 0.03 0.03 0.02 0.03 0.04 0.04 0.05 0.04 0.03 0.02 0.02 0.02 0.02 0.02 0.02 0.01 0.01
0.02 0.01 0.01 0.02 0.03 0.03 0.03 0.02 0.03 0.02 0.02 0.02 0.02 0.02 0.02 0.02 0.02 0.02 0.02 0.02 0.02 0.02 0.02 0.02 0.02 0.02 0.02 0.02 0.02 0.03 0.03 0.04 0.04 0.04 0.04 0.03 0.02 0.02 0.02 0.01 0.01 0.01 0.01
0.02 0.01 0.01 0.02 0.02 0.03 0.03 0.03 0.02 0.02 0.02 0.02 0.01 0.01 0.02 0.02 0.02 0.02 0.02 0.02 0.02 0.02 0.01 0.01 0.01 0.01 0.01 0.01 0.02 0.03 0.04 0.04 0.03 0.03 0.04 0.03 0.02 0.02 0.02 0.01 0.02 0.02 0.02
0.01 0.01 0.01 0.02 0.02 0.03 0.03 0.03 0.03 0.02 0.02 0.02 0.02 0.01 0.01 0.02 0.02 0.02 0.02 0.02 0.02 0.02 0.01 0.01 0.01 0.01 0.01 0.02 0.03 0.04 0.05 0.05 0.05 0.04 0.04 0.04 0.02 0.02 0.02 0.02 0.02 0.02 0.02
0.01 0.01 0.01 0.01 0.02 0.02 0.03 0.03 0.03 0.03 0.03 0.02 0.02 0.02 0.02 0.02 0.02 0.02 0.03 0.03 0.03 0.02 0.01 0.01 0.01 0.01 0.01 0.02 0.02 0.04 0.04 0.05 0.05 0.04 0.03 0.03 0.02 0.03 0.03 0.03 0.03 0.03 0.02
MSLP
1019.30 1019.63 1019.92 1020.18 1020.40 1020.60 1020.80 1021.00 1021.22 1021.45 1021.68 1021.90 1022.10 1022.28 1022.42 1022.53 1022.61 1022.67 1022.72 1022.76 1022.79 1022.82 1022.85 1022.87 1022.90 1022.92 1022.96 1023.01 1023.08 1023.16 1023.25 1023.34 1023.43 1023.51 1023.58 1023.63 1023.67 1023.70 1023.73 1023.76 1023.80 1023.84 1023.88
1019.36 1019.67 1019.97 1020.24 1020.48 1020.72 1020.95 1021.18 1021.42 1021.68 1021.93 1022.18 1022.41 1022.61 1022.78 1022.91 1023.00 1023.07 1023.11 1023.14 1023.15 1023.15 1023.15 1023.13 1023.11 1023.10 1023.10 1023.11 1023.15 1023.20 1023.28 1023.37 1023.46 1023.55 1023.63 1023.70 1023.75 1023.80 1023.83 1023.87 1023.91 1023.95 1024.00
1019.42 1019.71 1020.00 1020.29 1020.57 1020.84 1021.10 1021.37 1021.64 1021.91 1022.19 1022.46 1022.72 1022.95 1023.15 1023.30 1023.42 1023.50 1023.55 1023.56 1023.56 1023.54 1023.49 1023.44 1023.38 1023.32 1023.27 1023.24 1023.24 1023.26 1023.31 1023.39 1023.48 1023.57 1023.66 1023.74 1023.80 1023.85 1023.89 1023.92 1023.95 1023.99 1024.04
1019.51 1019.78 1020.07 1020.38 1020.68 1020.98 1021.27 1021.56 1021.85 1022.15 1022.44 1022.73 1023.01 1023.26 1023.49 1023.67 1023.81 1023.91 1023.97 1023.99 1023.98 1023.94 1023.88 1023.80 1023.70 1023.61 1023.51 1023.44 1023.39 1023.38 1023.40 1023.46 1023.53 1023.62 1023.71 1023.79 1023.85 1023.89 1023.92 1023.93 1023.95 1023.97 1024.01
1019.67 1019.92 1020.21 1020.52 1020.84 1021.15 1021.46 1021.76 1022.06 1022.36 1022.66 1022.96 1023.25 1023.52 1023.76 1023.96 1024.13 1024.25 1024.34 1024.38 1024.38 1024.35 1024.29 1024.20 1024.09 1023.97 1023.84 1023.74 1023.65 1023.60 1023.59 1023.62 1023.68 1023.75 1023.82 1023.89 1023.93 1023.95 1023.95 1023.93 1023.91 1023.90 1023.91
1019.92 1020.15 1020.42 1020.73 1021.05 1021.36 1021.67 1021.97 1022.26 1022.55 1022.84 1023.13 1023.41 1023.69 1023.94 1024.17 1024.36 1024.51 1024.62 1024.70 1024.73 1024.73 1024.70 1024.63 1024.53 1024.41 1024.27 1024.15 1024.04 1023.96 1023.91 1023.91 1023.93 1023.97 1024.02 1024.06 1024.06 1024.05 1024.00 1023.94 1023.87 1023.81 1023.78
1020.26 1020.47 1020.73 1021.02 1021.31 1021.61 1021.90 1022.17 1022.44 1022.70 1022.97 1023.24 1023.52 1023.79 1024.04 1024.28 1024.49 1024.67 1024.82 1024.94 1025.03 1025.08 1025.09 1025.07 1025.00 1024.90 1024.78 1024.66 1024.53 1024.42 1024.35 1024.31 1024.29 1024.30 1024.30 1024.30 1024.26 1024.20 1024.10 1023.98 1023.85 1023.73 1023.65
1020.69 1020.88 1021.12 1021.37 1021.64 1021.90 1022.15 1022.38 1022.61 1022.85 1023.09 1023.34 1023.59 1023.85 1024.11 1024.35 1024.58 1024.78 1024.97 1025.14 1025.28 1025.40 1025.47 1025.51 1025.50 1025.44 1025.35 1025.23 1025.09 1024.97 1024.86 1024.78 1024.72 1024.68 1024.64 1024.59 1024.50 1024.38 1024.23 1024.05 1023.86 1023.69 1023.55
1021.19 1021.37 1021.58 1021.80 1022.03 1022.24 1022.45 1022.64 1022.83 1023.03 1023.25 1023.47 1023.71 1023.95 1024.20 1024.44 1024.68 1024.90 1025.12 1025.33 1025.52 1025.69 1025.84 1025.94 1025.99 1025.98 1025.92 1025.81 1025.68 1025.53 1025.39 1025.27 1025.16 1025.07 1024.98 1024.88 1024.75 1024.59 1024.39 1024.16 1023.92 1023.70 1023.52
1021.73 1021.92 1022.11 1022.30 1022.48 1022.65 1022.81 1022.97 1023.13 1023.31 1023.50 1023.71 1023.93 1024.16 1024.40 1024.63 1024.86 1025.09 1025.32 1025.55 1025.78 1026.00 1026.20 1026.35 1026.45 1026.49 1026.45 1026.36 1026.21 1026.05 1025.87 1025.71 1025.56 1025.42 1025.29 1025.14 1024.98 1024.78 1024.55 1024.29 1024.02 1023.77 1023.57
1022.30 1022.49 1022.67 1022.84 1022.99 1023.13 1023.26 1023.39 1023.53 1023.70 1023.88 1024.09 1024.30 1024.53 1024.75 1024.97 1025.18 1025.40 1025.62 1025.85 1026.09 1026.33 1026.56 1026.74 1026.88 1026.94 1026.92 1026.82 1026.67 1026.48 1026.27 1026.06 1025.86 1025.68 1025.51 1025.34 1025.15 1024.94 1024.69 1024.43 1024.15 1023.91 1023.70
1022.84 1023.06 1023.25 1023.40 1023.54 1023.66 1023.78 1023.90 1024.05 1024.21 1024.41 1024.62 1024.84 1025.06 1025.28 1025.47 1025.66 1025.85 1026.05 1026.26 1026.48 1026.71 1026.93 1027.12 1027.26 1027.32 1027.30 1027.20 1027.03 1026.81 1026.56 1026.31 1026.07 1025.86 1025.66 1025.47 1025.27 1025.06 1024.83 1024.57 1024.32 1024.09 1023.91
1023.33 1023.58 1023.79 1023.95 1024.09 1024.22 1024.34 1024.48 1024.64 1024.83 1025.05 1025.28 1025.51 1025.74 1025.94 1026.12 1026.28 1026.43 1026.58 1026.74 1026.93 1027.12 1027.32 1027.49 1027.61 1027.66 1027.62 1027.50 1027.30 1027.05 1026.77 1026.48 1026.21 1025.97 1025.76 1025.56 1025.37 1025.17 1024.95 1024.73 1024.52 1024.32 1024.18
1023.74 1024.03 1024.26 1024.45 1024.61 1024.76 1024.90 1025.07 1025.26 1025.48 1025.73 1025.99 1026.24 1026.48 1026.68 1026.84 1026.97 1027.07 1027.18 1027.29 1027.42 1027.57 1027.72 1027.85 1027.94 1027.97 1027.91 1027.76 1027.54 1027.26 1026.94 1026.63 1026.33 1026.07 1025.85 1025.65 1025.46 1025.28 1025.10 1024.92 1024.74 1024.60 1024.50
1024.05 1024.38 1024.64 1024.87 1025.06 1025.24 1025.42 1025.62 1025.84 1026.10 1026.39 1026.68 1026.95 1027.20 1027.40 1027.55 1027.66 1027.73 1027.79 1027.85 1027.94 1028.03 1028.14 1028.23 1028.28 1028.27 1028.18 1028.01 1027.77 1027.47 1027.14 1026.81 1026.49 1026.21 1025.98 1025.78 1025.60 1025.44 1025.28 1025.13 1025.00 1024.89 1024.83
1024.26 1024.62 1024.92 1025.18 1025.41 1025.62 1025.84 1026.08 1026.34 1026.63 1026.94 1027.26 1027.56 1027.82 1028.03 1028.18 1028.27 1028.32 1028.35 1028.38 1028.42 1028.48 1028.54 1028.60 1028.62 1028.58 1028.48 1028.29 1028.04 1027.73 1027.39 1027.05 1026.72 1026.43 1026.18 1025.97 1025.80 1025.64 1025.50 1025.37 1025.26 1025.19 1025.16
1024.39 1024.77 1025.10 1025.39 1025.66 1025.91 1026.16 1026.42 1026.71 1027.03 1027.36 1027.69 1028.00 1028.27 1028.49 1028.65 1028.75 1028.80 1028.82 1028.84 1028.86 1028.89 1028.93 1028.96 1028.96 1028.91 1028.79 1028.61 1028.35 1028.05 1027.70 1027.36 1027.02 1026.72 1026.46 1026.24 1026.05 1025.89 1025.74 1025.61 1025.52 1025.46 1025.45
1024.47 1024.86 1025.22 1025.55 1025.84 1026.12 1026.40 1026.68 1026.97 1027.29 1027.62 1027.96 1028.27 1028.55 1028.78 1028.95 1029.06 1029.13 1029.17 1029.19 1029.21 1029.24 1029.27 1029.29 1029.28 1029.22 1029.11 1028.93 1028.68 1028.38 1028.05 1027.71 1027.37 1027.06 1026.78 1026.53 1026.32 1026.13 1025.97 1025.83 1025.72 1025.66 1025.66
1024.53 1024.94 1025.32 1025.68 1026.00 1026.30 1026.58 1026.86 1027.15 1027.45 1027.77 1028.09 1028.39 1028.67 1028.91 1029.09 1029.23 1029.32 1029.38 1029.43 1029.46 1029.50 1029.53 1029.55 1029.54 1029.49 1029.38 1029.21 1028.97 1028.69 1028.37 1028.03 1027.69 1027.37 1027.07 1026.79 1026.55 1026.33 1026.13 1025.97 1025.84 1025.76 1025.75
1024.61 1025.03 1025.44 1025.81 1026.16 1026.46 1026.75 1027.02 1027.28 1027.55 1027.84 1028.12 1028.41 1028.67 1028.91 1029.11 1029.27 1029.39 1029.48 1029.54 1029.60 1029.65 1029.68 1029.70 1029.69 1029.64 1029.54 1029.38 1029.16 1028.89 1028.58 1028.25 1027.91 1027.58 1027.26 1026.96 1026.68 1026.42 1026.19 1025.99 1025.84 1025.74 1025.71
1024.70 1025.15 1025.58 1025.98 1026.33 1026.65 1026.92 1027.16 1027.40 1027.63 1027.87 1028.11 1028.36 1028.60 1028.83 1029.03 1029.21 1029.34 1029.45 1029.54 1029.61 1029.66 1029.70 1029.71 1029.70 1029.64 1029.54 1029.38 1029.18 1028.92 1028.63 1028.31 1027.97 1027.64 1027.30 1026.98 1026.67 1026.39 1026.12 1025.89 1025.71 1025.58 1025.53
1024.80 1025.28 1025.74 1026.15 1026.52 1026.82 1027.08 1027.30 1027.49 1027.68 1027.87 1028.07 1028.28 1028.49 1028.70 1028.90 1029.07 1029.21 1029.33 1029.42 1029.48 1029.53 1029.55 1029.55 1029.52 1029.45 1029.34 1029.18 1028.98 1028.74 1028.46 1028.16 1027.83 1027.50 1027.17 1026.83 1026.51 1026.20 1025.91 1025.66 1025.45 1025.31 1025.23
1024.89 1025.39 1025.86 1026.29 1026.65 1026.95 1027.19 1027.38 1027.54 1027.69 1027.84 1028.00 1028.17 1028.35 1028.54 1028.71 1028.87 1029.00 1029.10 1029.18 1029.22 1029.24 1029.23 1029.20 1029.14 1029.06 1028.94 1028.78 1028.58 1028.35 1028.09 1027.81 1027.50 1027.18 1026.85 1026.52 1026.19 1025.88 1025.58 1025.32 1025.10 1024.94 1024.85
1024.93 1025.43 1025.90 1026.32 1026.67 1026.96 1027.18 1027.35 1027.48 1027.60 1027.72 1027.85 1028.00 1028.15 1028.31 1028.46 1028.60 1028.70 1028.78 1028.81 1028.82 1028.79 1028.75 1028.68 1028.59 1028.47 1028.34 1028.18 1027.99 1027.78 1027.54 1027.28 1026.99 1026.69 1026.38 1026.07 1025.75 1025.45 1025.16 1024.90 1024.68 1024.52 1024.42
1024.86 1025.35 1025.79 1026.18 1026.51 1026.77 1026.97 1027.12 1027.24 1027.35 1027.46 1027.58 1027.72 1027.87 1028.01 1028.14 1028.24 1028.31 1028.34 1028.33 1028.29 1028.22 1028.12 1028.01 1027.89 1027.75 1027.60 1027.45 1027.27 1027.07 1026.86 1026.62 1026.36 1026.09 1025.81 1025.51 1025.22 1024.93 1024.66 1024.42 1024.21 1024.05 1023.96
1024.69 1025.11 1025.49 1025.83 1026.11 1026.33 1026.51 1026.65 1026.78 1026.90 1027.02 1027.16 1027.31 1027.46 1027.60 1027.71 1027.79 1027.83 1027.81 1027.76 1027.66 1027.54 1027.40 1027.25 1027.09 1026.94 1026.78 1026.63 1026.46 1026.29 1026.10 1025.89 1025.66 1025.41 1025.15 1024.88 1024.61 1024.34 1024.10 1023.88 1023.69 1023.55 1023.46
Thickness
5600 5601 5602 5603 5605 5607 5608 5609 5611 5613 5614 5615 5616 5617 5618 5619 5620 5622 5623 5624 5626 5628 5630 5632 5634 5635 5637 5638 5639 5640 5641 5641 5642 5642 5642 5642 5642 5642 5642 5642 5642 5641 5640
5591 5593 5594 5595 5596 5598 5599 5600 5602 5604 5606 5607 5608 5608 5609 5610 5612 5613 5614 5616 5617 5619 5621 5623 5625 5628 5630 5632 5633 5634 5636 5636 5637 5637 5637 5637 5638 5638 5638 5638 5637 5637 5636
5581 5583 5584 5586 5587 5588 5590 5592 5593 5594 5597 5598 5599 5600 5601 5602 5604 5604 5606 5607 5608 5609 5611 5613 5616 5619 5622 5625 5627 5628 5630 5630 5631 5632 5632 5633 5633 5633 5633 5633 5633 5633 5632
5571 5573 5574 5575 5577 5579 5581 5582 5583 5585 5587 5588 5590 5591 5592 5594 5595 5595 5596 5597 5599 5600 5602 5604 5606 5610 5613 5617 5619 5621 5623 5625 5626 5627 5627 5628 5628 5628 5629 5629 5628 5628 5627
5561 5562 5564 5565 5566 5568 5570 5572 5573 5574 5576 5578 5580 5582 5583 5584 5586 5586 5587 5588 5590 5592 5593 5595 5597 5600 5604 5607 5611 5614 5616 5618 5620 5622 5622 5623 5623 5623 5624 5624 5624 5624 5623
5550 5552 5553 5554 5555 5557 5559 5561 5562 5563 5565 5567 5570 5572 5573 5574 5576 5577 5578 5579 5581 5583 5585 5587 5588 5591 5594 5598 5602 5606 5609 5612 5614 5615 5617 5617 5618 5619 5619 5619 5620 5619 5619
5538 5540 5541 5542 5544 5546 5547 5549 5551 5552 5554 5557 5559 5561 5563 5565 5566 5567 5568 5570 5572 5573 5575 5577 5580 5582 5585 5589 5593 5597 5601 5604 5606 5608 5610 5612 5613 5614 5614 5614 5615 5615 5614
5526 5528 5529 5530 5532 5534 5536 5537 5539 5540 5542 5544 5546 5549 5552 5555 5557 5558 5559 5561 5562 5564 5566 5568 5570 5573 5576 5580 5584 5588 5591 5595 5598 5600 5603 5605 5607 5608 5608 5609 5609 5609 5609
5513 5515 5517 5519 5520 5522 5523 5524 5526 5527 5530 5532 5534 5536 5539 5543 5544 5548 5549 5551 5553 5555 5557 5559 5561 5564 5567 5571 5575 5578 5582 5586 5589 5592 5595 5598 5600 5601 5601 5603 5603 5604 5604
5501 5503 5505 5506 5508 5509 5511 5512 5514 5515 5517 5520 5522 5524 5526 5528 5530 5535 5539 5541 5543 5545 5547 5549 5552 5554 5557 5561 5565 5568 5572 5576 5580 5583 5587 5590 5593 5594 5595 5596 5597 5597 5598
5488 5490 5492 5493 5495 5497 5499 5500 5501 5503 5505 5507 5509 5512 5514 5516 5519 5521 5526 5530 5531 5535 5538 5539 5542 5544 5548 5551 5555 5558 5562 5566 5570 5574 5577 5581 5584 5586 5587 5588 5589 5590 5591
5475 5477 5479 5481 5483 5485 5487 5489 5490 5491 5493 5495 5497 5500 5502 5505 5507 5509 5513 5517 5520 5524 5527 5529 5531 5534 5537 5541 5544 5547 5551 5555 5559 5563 5567 5571 5574 5577 5579 5580 5581 5583 5584
5461 5464 5465 5468 5470 5472 5474 5476 5478 5480 5481 5483 5485 5488 5491 5493 5496 5498 5501 5504 5508 5513 5516 5519 5521 5523 5526 5529 5532 5536 5540 5543 5547 5552 5556 5560 5563 5566 5569 5571 5573 5574 5576
5448 5451 5453 5455 5457 5459 5462 5464 5466 5468 5469 5471 5474 5476 5479 5482 5485 5488 5491 5492 5496 5501 5505 5508 5510 5512 5515 5517 5520 5524 5528 5532 5536 5540 5545 5549 5552 5555 5558 5561 5563 5565 5566
5435 5438 5440 5442 5445 5447 5450 5451 5454 5456 5458 5460 5462 5465 5468 5472 5474 5478 5480 5483 5485 5490 5496 5499 5500 5502 5503 5506 5509 5512 5516 5520 5524 5529 5533 5537 5540 5544 5547 5550 5552 5554 5556
5422 5424 5427 5429 5432 5435 5437 5439 5442 5444 5447 5449 5451 5454 5457 5461 5464 5467 5470 5472 5475 5478 5483 5489 5490 5492 5493 5495 5497 5501 5505 5509 5513 5518 5522 5526 5529 5533 5536 5539 5541 5544 5546
5409 5412 5414 5417 5419 5422 5424 5426 5429 5432 5435 5438 5440 5443 5447 5449 5453 5456 5459 5462 5465 5467 5471 5477 5479 5481 5483 5484 5486 5489 5492 5497 5503 5507 5512 5516 5519 5522 5525 5528 5531 5533 5535
5396 5399 5402 5404 5407 5409 5411 5414 5417 5420 5424 5427 5429 5432 5435 5439 5442 5446 5448 5451 5454 5457 5460 5465 5468 5470 5472 5473 5475 5478 5482 5486 5491 5496 5501 5505 5509 5511 5515 5517 5520 5523 5524
5384 5387 5389 5392 5394 5397 5399 5402 5404 5408 5412 5415 5418 5421 5424 5427 5432 5435 5439 5442 5444 5448 5450 5454 5457 5458 5459 5461 5463 5467 5471 5475 5480 5484 5489 5494 5497 5500 5503 5506 5509 5512 5514
5372 5374 5377 5380 5382 5385 5388 5390 5392 5395 5400 5404 5407 5410 5413 5417 5421 5424 5428 5432 5434 5436 5438 5441 5444 5446 5448 5450 5452 5456 5460 5464 5468 5473 5477 5481 5485 5488 5492 5495 5498 5500 5502
5360 5362 5365 5368 5370 5373 5377 5379 5381 5384 5389 5393 5396 5400 5403 5407 5411 5415 5419 5422 5424 5426 5428 5430 5433 5435 5438 5439 5442 5445 5448 5452 5456 5461 5465 5469 5473 5478 5481 5483 5486 5488 5490
5347 5350 5353 5356 5359 5363 5366 5368 5371 5374 5378 5382 5386 5390 5393 5397 5401 5405 5409 5413 5415 5417 5419 5422 5424 5427 5430 5431 5433 5435 5437 5440 5446 5450 5452 5457 5460 5465 5469 5472 5475 5476 5479
5335 5337 5341 5344 5348 5352 5354 5357 5360 5363 5368 5372 5377 5380 5385 5389 5391 5395 5399 5402 5405 5408 5411 5413 5416 5419 5421 5423 5423 5425 5427 5430 5436 5439 5438 5446 5449 5453 5457 5460 5462 5465 5467
5322 5325 5329 5333 5337 5341 5344 5347 5350 5353 5358 5363 5368 5372 5375 5379 5382 5386 5389 5392 5396 5399 5401 5403 5408 5412 5413 5414 5415 5417 5418 5420 5425 5427 5427 5433 5439 5441 5445 5448 5450 5452 5454
5310 5313 5318 5322 5326 5331 5333 5337 5339 5342 5348 5354 5359 5363 5367 5371 5375 5377 5380 5383 5386 5390 5392 5395 5399 5402 5404 5405 5405 5405 5406 5409 5415 5418 5417 5420 5426 5427 5432 5436 5438 5439 5442
5301 5304 5308 5312 5316 5321 5324 5327 5329 5333 5339 5345 5350 5354 5358 5362 5365 5367 5370 5373 5377 5381 5383 5386 5389 5391 5393 5394 5396 5397 5398 5399 5403 5407 5409 5407 5411 5410 5416 5425 5426 5427 5429